Flag for Romania Weather past 2 weeks in Târgu Mureş, Romania

Now
37 °F

Passing clouds.


Feels Like: 37 °F
Forecast: 36 / 54 °F
Wind: 2 mph from North

Location: Tirgu Mures Airport

Current Time: Feb 28, 2015 at 2:49:20 AM

Latest Report: Feb 28, 2015 at 2:00 AM


Visibility: 6 mi

Pressure: 29.92 "Hg

Humidity: 100%

Dew point: 37 °F

Location of Târgu MureşLocation

Historic Weather in Târgu Mureş — Graph

°F

Târgu Mureş temperature yesterday

Maximum temperature yesterday: 55 °F (at 4:30 PM)
Minimum temperature yesterday: 41 °F (at 5:30 AM)
Average temperature yesterday: 47 °F

Past Weeks' High & Low Weather Summary

 TemperatureHumidityPressure
High61 °F (Feb 24, 3:00 PM)100% (Feb 13, 9:00 AM)30.69 "Hg (Feb 13, 9:00 AM)
Low9 °F (Feb 18, 7:30 AM)23% (Feb 17, 3:30 PM)29.65 "Hg (Feb 24, 4:00 PM)
Average35 °F77%30.13 "Hg
* Reported Feb 13 2:00 AM — Feb 28 2:00 AM, Târgu Mureş, Weather by CustomWeather, © 2015

Note: Actual official high and low records may vary slightly from our data, if they occured in-between our weather recording intervals... More about our weather records

Advertising

Târgu Mureş weather history for previous 24 hours

 ConditionsComfort  
Time TempWeatherWind HumidityBarometerVisibility
2:00 AM
Sat, Feb 28
37 °FPassing clouds.2 mph100%29.92 "Hg6 mi
1:00 AM37 °FPassing clouds.1 mph93%29.92 "Hg5 mi
12:00 AM39 °FClear.1 mph93%29.92 "Hg5 mi
11:00 PM
Fri, Feb 27
41 °FClear.No wind93%29.92 "Hg5 mi
10:00 PM43 °FClear.3 mph93%29.92 "Hg10 mi
9:00 PM46 °FClear.3 mph82%29.92 "Hg10 mi
8:30 PM50 °FPassing clouds.1 mph71%29.92 "HgN/A
8:00 PM50 °FLight rain. Passing clouds.5 mph76%29.92 "HgN/A
7:30 PM50 °FClear.2 mph76%29.92 "Hg10 mi
7:00 PM48 °FPassing clouds.3 mph82%29.92 "HgN/A
6:30 PM50 °FClear.2 mph76%29.92 "Hg10 mi
6:00 PM50 °FSunny.5 mph76%29.92 "Hg10 mi
5:30 PM52 °FSunny.3 mph67%29.92 "Hg10 mi
5:00 PM55 °FSunny.2 mph59%29.89 "Hg10 mi
4:30 PM55 °FPassing clouds.1 mph59%29.92 "HgN/A
4:00 PM54 °FPassing clouds.3 mph67%29.92 "HgN/A
3:30 PM54 °FScattered clouds.5 mph67%29.92 "HgN/A
3:00 PM54 °FScattered clouds.5 mph67%29.92 "HgN/A
2:30 PM54 °FScattered clouds.3 mph67%29.95 "HgN/A
2:00 PM52 °FScattered clouds.6 mph72%29.95 "HgN/A
1:30 PM52 °FScattered clouds.7 mph72%29.98 "HgN/A
1:00 PM50 °FBroken clouds.6 mph76%29.98 "HgN/A
12:30 PM48 °FPartly sunny.3 mph76%29.98 "HgN/A
12:00 PM48 °FPartly sunny.5 mph82%30.01 "HgN/A
11:30 AM46 °FScattered clouds.1 mph87%30.01 "HgN/A
11:00 AM46 °FPartly sunny.3 mph82%30.01 "HgN/A
10:30 AM46 °FBroken clouds.2 mph87%30.01 "HgN/A
10:00 AM45 °FBroken clouds.5 mph93%30.01 "Hg5 mi
9:30 AM43 °FBroken clouds.5 mph93%30.04 "Hg5 mi
9:00 AM43 °FMostly cloudy.5 mph100%30.04 "Hg4 mi
8:30 AM43 °FFog.3 mph93%30.04 "Hg3 mi
8:00 AM41 °FFog.3 mph93%30.04 "Hg2 mi
7:30 AM41 °FFog.No wind100%30.04 "Hg3 mi
7:00 AM41 °FFog.2 mph100%30.04 "Hg3 mi
6:30 AM41 °FFog.No wind100%30.04 "Hg3 mi
5:30 AM41 °FLight rain. Mostly cloudy.3 mph100%30.04 "Hg4 mi
4:00 AM43 °FMostly cloudy.No wind93%30.04 "Hg4 mi
3:00 AM43 °FFog.No wind100%30.04 "Hg3 mi
2:00 AM43 °FFog.2 mph100%30.04 "Hg2 mi
Weather by CustomWeather, © 2015

See weather overviewHow to use our weather pages